�������l�o���
Date,Time,MP-1(��Sv/h),MP-2(��Sv/h),MP-3(��Sv/h),MP-4(��Sv/h),MP-5(��Sv/h),MP-6(��Sv/h),MP-7(��Sv/h),MP-8(��Sv/h),����,����(m/s),���J
2020/11/04,00:00,0.655,0.941,0.599,1.167,0.835,0.382,0.670,0.631,�k��,4.1,��
2020/11/04,00:10,0.656,0.941,0.599,1.165,0.836,0.382,0.669,0.631,���k��,4.4,��
2020/11/04,00:20,0.656,0.941,0.599,1.165,0.834,0.384,0.669,0.631,���k��,5.5,��
2020/11/04,00:30,0.655,0.942,0.600,1.166,0.836,0.383,0.668,0.631,�k��,6.1,��
2020/11/04,00:40,0.657,0.940,0.599,1.165,0.834,0.383,0.668,0.630,�k��,6.5,��
2020/11/04,00:50,0.656,0.941,0.599,1.165,0.836,0.384,0.668,0.630,�k�k��,9.9,��
2020/11/04,01:00,0.656,0.940,0.600,1.166,0.835,0.384,0.667,0.631,�k�k��,10.0,��
2020/11/04,01:10,0.656,0.942,0.599,1.163,0.836,0.383,0.668,0.630,�k��,11.1,��
2020/11/04,01:20,0.653,0.938,0.599,1.165,0.837,0.382,0.668,0.631,�k��,9.1,��
2020/11/04,01:30,0.654,0.943,0.599,1.168,0.836,0.383,0.667,0.631,�k�k��,8.7,��
2020/11/04,01:40,0.654,0.941,0.598,1.167,0.837,0.383,0.666,0.632,�k�k��,10.9,��
2020/11/04,01:50,0.655,0.943,0.599,1.167,0.835,0.383,0.667,0.632,�k�k��,9.4,��
2020/11/04,02:00,0.655,0.942,0.600,1.165,0.835,0.381,0.667,0.631,�k�k��,7.1,��
2020/11/04,02:10,0.655,0.943,0.600,1.168,0.835,0.381,0.669,0.630,�k�k��,6.2,��
2020/11/04,02:20,0.655,0.942,0.599,1.169,0.835,0.382,0.667,0.630,�k�k��,6.4,��
2020/11/04,02:30,0.654,0.942,0.598,1.167,0.834,0.382,0.668,0.632,�k�k��,6.4,��
2020/11/04,02:40,0.655,0.941,0.599,1.167,0.835,0.383,0.669,0.632,�k�k��,6.6,��
2020/11/04,02:50,0.652,0.944,0.599,1.168,0.835,0.382,0.669,0.632,�k�k��,4.8,��
2020/11/04,03:00,0.652,0.942,0.600,1.169,0.835,0.383,0.668,0.630,�k�k��,5.0,��
2020/11/04,03:10,0.654,0.942,0.598,1.169,0.836,0.383,0.669,0.630,�k�k��,5.4,��
2020/11/04,03:20,0.654,0.942,0.598,1.167,0.835,0.382,0.669,0.630,�k,5.4,��
2020/11/04,03:30,0.654,0.943,0.599,1.168,0.834,0.383,0.669,0.631,�k�k��,4.9,��
2020/11/04,03:40,0.654,0.944,0.601,1.165,0.837,0.383,0.670,0.631,�k�k��,5.1,��
2020/11/04,03:50,0.654,0.943,0.597,1.169,0.836,0.384,0.670,0.631,�k�k��,6.1,��
2020/11/04,04:00,0.655,0.943,0.599,1.167,0.836,0.383,0.668,0.632,�k��,4.8,��
2020/11/04,04:10,0.653,0.945,0.600,1.167,0.836,0.383,0.671,0.630,�k��,6.4,��
2020/11/04,04:20,0.654,0.944,0.599,1.169,0.835,0.384,0.670,0.629,�k�k��,3.6,��
2020/11/04,04:30,0.654,0.942,0.598,1.169,0.836,0.382,0.669,0.630,�k��,7.1,��
2020/11/04,04:40,0.654,0.941,0.600,1.169,0.836,0.383,0.670,0.630,�k�k��,5.3,��
2020/11/04,04:50,0.654,0.942,0.598,1.167,0.836,0.382,0.671,0.632,�k�k��,4.9,��
2020/11/04,05:00,0.654,0.941,0.599,1.167,0.834,0.384,0.668,0.631,�k��,1.1,��
2020/11/04,05:10,0.655,0.942,0.598,1.168,0.836,0.381,0.670,0.631,���쐼,1.5,��
2020/11/04,05:20,0.654,0.942,0.597,1.168,0.835,0.383,0.670,0.630,��,1.4,��
2020/11/04,05:30,0.653,0.943,0.599,1.169,0.835,0.382,0.671,0.631,��,5.6,��
2020/11/04,05:40,0.654,0.943,0.600,1.169,0.836,0.383,0.669,0.631,���k��,9.5,��
2020/11/04,05:50,0.654,0.943,0.599,1.169,0.836,0.384,0.669,0.631,�k��,8.1,��
2020/11/04,06:00,0.654,0.943,0.598,1.168,0.835,0.382,0.670,0.631,�k��,3.8,��
2020/11/04,06:10,0.653,0.942,0.599,1.169,0.835,0.382,0.670,0.630,�k��,2.6,��
2020/11/04,06:20,0.653,0.944,0.598,1.169,0.836,0.383,0.669,0.630,�k��,3.9,��
2020/11/04,06:30,0.654,0.943,0.597,1.168,0.836,0.381,0.669,0.630,���k��,5.4,��
2020/11/04,06:40,0.652,0.942,0.600,1.169,0.833,0.382,0.667,0.630,�k��,6.6,��
2020/11/04,06:50,0.654,0.944,0.599,1.167,0.836,0.381,0.668,0.630,���k��,6.1,��
2020/11/04,07:00,0.654,0.942,0.600,1.168,0.836,0.382,0.669,0.630,�k��,6.8,��
2020/11/04,07:10,0.654,0.942,0.599,1.167,0.835,0.382,0.669,0.630,�k��,7.5,��
2020/11/04,07:20,0.653,0.944,0.598,1.168,0.834,0.381,0.669,0.632,�k��,5.3,��
2020/11/04,07:30,0.655,0.942,0.600,1.170,0.834,0.382,0.671,0.631,���k��,5.3,��
2020/11/04,07:40,0.654,0.943,0.599,1.166,0.836,0.383,0.670,0.630,���k��,6.3,��
2020/11/04,07:50,0.654,0.943,0.599,1.167,0.836,0.381,0.668,0.631,���k��,5.7,��
2020/11/04,08:00,0.654,0.941,0.599,1.170,0.835,0.381,0.671,0.631,��,5.1,��
2020/11/04,08:10,0.655,0.943,0.598,1.168,0.835,0.382,0.670,0.629,���k��,3.7,��
2020/11/04,08:20,0.653,0.942,0.601,1.169,0.836,0.382,0.670,0.629,���k��,4.2,��
2020/11/04,08:30,0.656,0.942,0.598,1.168,0.837,0.382,0.669,0.631,���k��,2.5,��
2020/11/04,08:40,0.655,0.942,0.598,1.169,0.836,0.381,0.670,0.630,���k��,4.5,��
2020/11/04,08:50,0.653,0.939,0.598,1.171,0.836,0.383,0.667,0.633,��,5.1,��
2020/11/04,09:00,0.653,0.942,0.601,1.171,0.836,0.380,0.670,0.631,���k��,4.3,��
2020/11/04,09:10,0.656,0.939,0.599,1.169,0.835,0.383,0.669,0.630,��,4.7,��
2020/11/04,09:20,0.656,0.937,0.600,1.170,0.836,0.383,0.668,0.631,��,4.1,��
2020/11/04,09:30,0.654,0.937,0.600,1.171,0.837,0.382,0.668,0.631,���쐼,3.9,��
2020/11/04,09:40,0.656,0.937,0.600,1.171,0.836,0.383,0.668,0.631,��,5.4,��
2020/11/04,09:50,0.653,0.940,0.600,1.170,0.838,0.383,0.668,0.631,��,6.1,��
2020/11/04,10:00,0.655,0.938,0.600,1.169,0.838,0.382,0.668,0.632,��,5.3,��
2020/11/04,10:10,0.656,0.938,0.601,1.170,0.839,0.383,0.669,0.634,���k��,7.3,��
2020/11/04,10:20,0.656,0.941,0.600,1.170,0.837,0.378,0.668,0.632,��,7.2,��
2020/11/04,10:30,0.656,0.940,0.600,1.172,0.837,-,0.670,0.630,��,7.2,��
2020/11/04,10:40,0.656,0.939,0.600,1.173,0.839,-,0.669,0.633,��,6.8,�L
2020/11/04,10:50,0.654,0.941,0.601,1.172,0.838,-,0.670,0.634,��,6.0,�L
2020/11/04,11:00,0.655,0.942,0.600,1.170,0.838,-,0.669,0.632,�k��,7.2,��
2020/11/04,11:10,0.652,0.943,0.603,1.171,0.838,-,0.672,0.632,�k��,7.7,��
2020/11/04,11:20,0.653,0.942,0.601,1.172,0.838,-,0.670,0.632,�k��,6.6,��
2020/11/04,11:30,0.655,0.945,0.600,1.172,0.838,-,0.669,0.631,�k�k��,5.3,��
2020/11/04,11:40,0.652,0.945,0.602,1.170,0.837,-,0.670,0.630,�k�k��,4.7,��
2020/11/04,11:50,0.656,0.944,0.602,1.174,0.836,-,0.668,0.631,�k�k��,3.9,��
2020/11/04,12:00,0.654,0.945,0.602,1.174,0.836,-,0.668,0.631,���k��,4.1,��
2020/11/04,12:10,0.656,0.944,0.602,1.171,0.838,-,0.669,0.633,��,6.7,��
2020/11/04,12:20,0.655,0.946,0.601,1.173,0.840,-,0.669,0.633,�k��,4.5,��
2020/11/04,12:30,0.656,0.946,0.603,1.172,0.839,-,0.669,0.631,�k�k��,6.3,��
2020/11/04,12:40,0.655,0.946,0.602,1.172,0.839,-,0.670,0.631,�k,5.0,��
2020/11/04,12:50,0.657,0.944,0.603,1.173,0.839,-,0.669,0.629,�k�k��,5.2,�L
2020/11/04,13:00,0.655,0.945,0.603,1.172,0.837,-,0.669,0.629,�k�k��,3.8,��
2020/11/04,13:10,0.656,0.947,0.603,1.173,0.838,-,0.669,0.631,�k��,3.0,��
2020/11/04,13:20,0.660,0.946,0.602,1.173,0.839,-,0.668,0.630,�k,3.0,��
2020/11/04,13:30,0.658,0.945,0.602,1.172,0.840,-,0.668,0.631,�k��,1.2,��
2020/11/04,13:40,0.658,0.946,0.603,1.174,0.841,0.384,0.669,0.631,�k�k��,3.8,��
2020/11/04,13:50,0.658,0.946,0.603,1.173,0.840,0.385,0.668,0.632,�k,5.1,��
2020/11/04,14:00,0.659,0.944,0.602,1.173,0.840,0.384,0.669,0.630,�k�k��,5.6,��
2020/11/04,14:10,0.658,0.944,0.603,1.173,0.839,0.384,0.667,0.630,�k�k��,4.4,��
2020/11/04,14:20,0.657,0.942,0.604,1.173,0.840,0.383,0.667,0.630,���k��,3.1,��
2020/11/04,14:30,0.657,0.943,0.602,1.171,0.838,0.384,0.669,0.630,��,4.8,��
2020/11/04,14:40,0.657,0.944,0.603,1.173,0.837,0.384,0.669,0.631,���쐼,5.1,��
2020/11/04,14:50,0.658,0.947,0.602,1.175,0.838,0.382,0.669,0.630,���쐼,5.6,��
2020/11/04,15:00,0.658,0.951,0.602,1.175,0.841,0.385,0.670,0.630,���쐼,5.1,��
2020/11/04,15:10,0.657,0.949,0.603,1.174,0.838,0.383,0.669,0.629,��,6.1,��
2020/11/04,15:20,0.657,0.949,0.602,1.174,0.840,0.384,0.669,0.632,��,5.8,��
2020/11/04,15:30,0.654,0.949,0.602,1.175,0.838,0.383,0.670,0.634,��,5.8,��
2020/11/04,15:40,0.655,0.947,0.602,1.174,0.841,0.383,0.669,0.632,��,5.6,��
2020/11/04,15:50,0.656,0.951,0.602,1.175,0.840,0.384,0.669,0.632,��,5.8,��
2020/11/04,16:00,0.655,0.951,0.602,1.176,0.841,0.382,0.670,0.634,��,5.6,��
2020/11/04,16:10,0.655,0.950,0.603,1.173,0.841,0.383,0.671,0.633,��,4.0,��
2020/11/04,16:20,0.656,0.950,0.602,1.175,0.839,0.384,0.669,0.632,���쐼,4.5,��
2020/11/04,16:30,0.655,0.950,0.602,1.181,0.840,0.383,0.669,0.634,���쐼,5.3,��
2020/11/04,16:40,0.655,0.952,0.601,1.175,0.840,0.383,0.667,0.632,��,5.8,��
2020/11/04,16:50,0.656,0.951,0.601,1.173,0.841,0.384,0.667,0.631,���쐼,5.6,��
2020/11/04,17:00,0.655,0.952,0.600,1.174,0.843,0.383,0.669,0.632,��,6.1,��
2020/11/04,17:10,0.657,0.950,0.603,1.174,0.842,0.383,0.669,0.632,��,6.8,��
2020/11/04,17:20,0.656,0.949,0.602,1.174,0.841,0.384,0.671,0.633,��,6.1,��
2020/11/04,17:30,0.656,0.951,0.602,1.174,0.843,0.382,0.671,0.633,��,5.6,��
2020/11/04,17:40,0.657,0.949,0.604,1.176,0.844,0.383,0.670,0.632,��,6.8,��
2020/11/04,17:50,0.657,0.949,0.601,1.176,0.844,0.383,0.670,0.631,��,5.8,��
2020/11/04,18:00,0.658,0.950,0.601,1.175,0.842,0.382,0.670,0.630,��,5.1,��
2020/11/04,18:10,0.657,0.949,0.603,1.177,0.840,0.383,0.671,0.632,��,5.3,��
2020/11/04,18:20,0.656,0.947,0.603,1.171,0.841,0.383,0.670,0.632,��,5.6,��
2020/11/04,18:30,0.657,0.949,0.602,1.174,0.841,0.383,0.671,0.632,��,4.8,��
2020/11/04,18:40,0.657,0.948,0.602,1.175,0.841,0.383,0.671,0.632,��,5.0,��
2020/11/04,18:50,0.656,0.948,0.602,1.174,0.842,0.383,0.670,0.631,��,4.9,��
2020/11/04,19:00,0.657,0.949,0.603,1.175,0.842,0.383,0.670,0.631,��,5.5,��
2020/11/04,19:10,0.656,0.947,0.601,1.176,0.842,0.383,0.671,0.631,��,5.1,��
2020/11/04,19:20,0.657,0.949,0.602,1.175,0.841,0.383,0.668,0.631,��,4.1,��
2020/11/04,19:30,0.657,0.952,0.602,1.175,0.841,0.384,0.669,0.631,��,3.9,��
2020/11/04,19:40,0.656,0.948,0.602,1.176,0.843,0.382,0.670,0.631,��,4.9,��
2020/11/04,19:50,0.657,0.947,0.601,1.175,0.842,0.383,0.670,0.630,��,4.6,��
2020/11/04,20:00,0.657,0.949,0.601,1.177,0.842,0.382,0.671,0.631,��,2.6,��
2020/11/04,20:10,0.658,0.949,0.601,1.174,0.842,0.381,0.670,0.631,���쐼,2.9,��
2020/11/04,20:20,0.655,0.949,0.603,1.174,0.840,0.382,0.671,0.633,���쐼,4.6,��
2020/11/04,20:30,0.657,0.949,0.603,1.176,0.843,0.382,0.671,0.631,�쐼,5.1,��
2020/11/04,20:40,0.657,0.947,0.601,1.174,0.842,0.382,0.671,0.631,�쐼,5.6,��
2020/11/04,20:50,0.656,0.948,0.601,1.174,0.843,0.383,0.670,0.630,���쐼,6.0,��
2020/11/04,21:00,0.658,0.949,0.602,1.174,0.843,0.384,0.670,0.632,�쐼,6.2,��
2020/11/04,21:10,0.657,0.948,0.601,1.175,0.841,0.383,0.671,0.631,��쐼,5.8,��
2020/11/04,21:20,0.657,0.949,0.603,1.175,0.842,0.382,0.669,0.631,�쐼,7.0,��
2020/11/04,21:30,0.655,0.949,0.602,1.174,0.842,0.383,0.670,0.631,�쐼,5.8,��
2020/11/04,21:40,0.657,0.948,0.602,1.174,0.840,0.383,0.670,0.630,�쐼,5.2,��
2020/11/04,21:50,0.656,0.948,0.601,1.176,0.842,0.382,0.671,0.631,�쐼,4.7,��
2020/11/04,22:00,0.658,0.946,0.601,1.173,0.840,0.384,0.671,0.630,�쐼,5.3,��
2020/11/04,22:10,0.658,0.949,0.602,1.174,0.842,0.383,0.669,0.632,�쐼,5.7,��
2020/11/04,22:20,0.658,0.948,0.603,1.174,0.841,0.383,0.672,0.631,�쐼,4.0,��
2020/11/04,22:30,0.656,0.947,0.603,1.176,0.842,0.382,0.670,0.631,���쐼,5.7,��
2020/11/04,22:40,0.656,0.946,0.602,1.176,0.842,0.383,0.671,0.631,�쐼,6.0,��
2020/11/04,22:50,0.659,0.949,0.602,1.176,0.842,0.382,0.672,0.631,���쐼,6.1,��
2020/11/04,23:00,0.655,0.948,0.602,1.172,0.841,0.382,0.668,0.631,���쐼,4.9,��
2020/11/04,23:10,0.654,0.949,0.601,1.175,0.840,0.383,0.671,0.630,���쐼,3.2,��
2020/11/04,23:20,0.655,0.948,0.602,1.174,0.841,0.383,0.670,0.630,�쐼,3.6,��
2020/11/04,23:30,0.656,0.947,0.602,1.175,0.842,0.382,0.670,0.631,���쐼,5.0,��
2020/11/04,23:40,0.654,0.946,0.601,1.173,0.842,0.383,0.671,0.631,��,5.4,��
2020/11/04,23:50,0.656,0.950,0.602,1.174,0.843,0.382,0.670,0.631,���쐼,4.7,��
